Tracking 31027 objects as of 19-Jul-2025
HD Live streaming from Space Station
objects crossing your sky now

STARLINK-4606

Track STARLINK-4606 now!
10-day predictions
STARLINK-4606 is classified as:


NORAD ID: 53632
Int'l Code: 2022-104AW
Perigee: 545.9 km
Apogee: 547.8 km
Inclination: 53.2 °
Period: 95.4 minutes
Semi major axis: 6917 km
RCS: Unknown
Launch date: August 28, 2022
Source: United States (US)
Launch site: AIR FORCE EASTERN TEST RANGE (AFETR)
Your satellite tracking list
SL-8 R/B
Track 1 satellite(s)




NASA's NSSDC Master Catalog

Two Line Element Set (TLE):
1 53632U 22104AW  25199.38629242  .00000727  00000-0  63723-4 0  9991
2 53632  53.2161 195.9347 0001313  48.2397 311.8707 15.08852610160851
Source of the keplerian elements: AFSPC